Temperature
30 31 32 32 32 33 32 32 32 32 32 32 32 32 31 29 28 28 27 26 25 24 24 23 22 22 21 21 21 20 20 20 20 19 19 18 18 18 18 18 18 18 18 18
30 31 32 32 31 31 32 32 32 32 31 31 32 32 32 30 29 28 28 26 25 25 24 23 22 22 21 21 21 21 21 20 20 19 19 19 19 18 18 18 18 18 18 18
30 31 31 31 31 31 31 32 32 31 31 31 31 31 31 31 29 28 28 27 26 26 25 23 23 22 22 21 21 21 21 20 20 19 19 19 19 18 18 18 18 18 18 18
30 30 30 30 31 31 31 32 32 31 31 31 31 31 31 31 30 29 28 28 27 26 25 24 23 23 22 22 22 22 21 21 20 20 19 19 18 18 18 18 18 18 18 18
30 29 29 30 31 31 31 31 31 31 31 31 31 31 32 31 31 31 30 28 28 27 26 25 24 23 23 22 22 21 21 21 21 20 20 19 19 18 18 18 18 18 18 18
30 30 30 31 31 31 30 30 30 31 32 30 31 31 31 32 31 31 30 29 28 27 26 25 24 23 23 22 22 21 21 21 21 20 20 19 19 19 18 18 18 18 18 18
28 29 30 30 30 30 30 30 30 29 30 30 31 30 31 31 31 31 30 29 27 27 26 25 24 23 22 22 22 21 21 21 21 20 20 20 19 19 19 18 18 18 18 18
28 28 29 30 31 30 30 31 30 29 30 31 30 30 32 31 30 29 29 28 27 27 26 25 24 23 22 22 22 21 21 21 21 20 20 20 19 19 18 18 18 18 18 18
29 29 30 30 30 31 30 31 32 31 31 30 31 31 31 31 30 30 29 28 27 27 26 25 24 23 22 22 22 21 21 21 21 20 20 20 19 19 18 18 18 18 18 17
29 28 29 29 30 29 31 32 31 30 29 29 30 30 31 31 30 30 29 28 27 26 25 25 24 23 22 22 21 21 21 21 20 20 20 19 19 19 18 18 18 18 18 18
29 28 28 29 29 30 29 30 30 30 31 30 30 31 32 31 30 30 30 28 27 26 25 24 23 23 22 22 21 21 21 21 20 20 20 19 19 19 18 18 18 18 18 17
28 29 28 29 30 30 31 30 30 29 29 30 30 31 31 31 31 30 29 27 26 25 25 24 23 22 22 21 21 21 21 20 20 20 20 19 19 19 18 18 18 17 17 17
27 27 27 28 28 29 29 30 31 31 30 30 30 31 30 30 30 29 28 26 25 24 24 23 22 22 21 21 21 20 20 20 20 20 19 19 19 18 18 18 18 17 17 17
27 27 28 28 29 29 29 29 30 30 30 30 30 31 30 30 30 29 27 26 25 23 23 23 22 21 21 21 20 20 20 20 20 19 19 19 18 18 18 17 17 17 17 17
27 27 28 29 29 30 29 29 29 30 30 30 30 31 31 30 29 28 26 25 24 23 23 22 22 21 21 21 20 20 20 20 19 19 19 18 18 18 18 17 17 17 17 16
26 26 27 27 28 29 29 29 29 30 30 30 30 30 31 29 28 27 26 25 24 23 23 22 21 21 21 20 20 20 20 20 19 19 18 18 18 18 17 17 17 16 16 16
25 25 26 27 28 28 28 29 29 29 30 30 30 30 29 28 27 26 25 24 24 23 22 22 21 21 20 20 20 20 20 19 19 19 18 18 18 17 17 16 16 16 16 15
24 25 26 27 26 25 28 29 30 29 29 30 30 29 29 28 26 25 24 24 23 23 22 21 21 21 20 20 20 20 20 19 19 18 18 18 17 17 16 16 16 15 15 15
24 24 26 27 26 27 27 28 28 28 28 29 29 29 28 26 26 25 24 23 23 22 22 21 21 20 20 20 20 19 19 19 18 18 18 17 17 16 16 15 15 15 14 14
23 24 25 26 26 26 27 28 27 28 27 28 28 27 27 26 28 27 23 23 22 22 21 21 20 20 20 19 19 19 18 18 18 18 17 17 16 16 15 15 15 14 14 14
23 23 25 25 26 27 27 26 26 26 27 26 26 26 26 26 27 24 22 22 21 21 20 20 20 20 19 19 19 18 18 18 18 17 17 16 16 16 15 15 14 14 14 14
24 25 24 25 25 26 25 26 26 25 24 25 25 25 24 24 23 22 21 20 20 20 20 20 20 19 19 19 18 18 18 17 17 17 16 16 16 15 15 14 14 14 13 13
23 24 25 25 25 23 23 23 22 22 23 23 23 23 23 22 21 21 20 19 19 19 19 19 19 19 18 18 18 18 17 17 17 16 16 16 15 15 15 14 14 13 13 13
21 21 22 22 23 22 21 21 21 21 22 22 21 21 22 21 21 20 19 18 18 18 18 18 18 18 18 17 17 17 17 17 16 16 15 15 15 14 14 14 13 13 13 13
21 21 22 22 22 21 21 20 20 20 20 20 20 20 20 20 20 19 18 18 18 18 18 18 18 18 17 17 17 16 16 16 16 15 15 14 14 13 13 13 13 13 13 12
20 21 22 22 20 21 20 19 19 19 19 19 19 19 19 19 19 18 18 18 18 18 17 17 17 17 16 16 16 16 16 16 15 14 14 14 13 13 13 13 13 12 12 12
Wind_Speed
7 10 12 10 8 4 5 5 4 3 3 5 5 5 6 9 11 11 12 12 12 12 11 10 11 10 10 9 9 9 9 8 7 5 5 5 4 4 4 4 4 5 6 5
9 13 10 7 7 6 7 7 5 4 2 4 4 5 5 9 11 12 12 12 12 12 11 11 11 10 10 10 10 10 10 9 8 6 5 4 4 4 3 3 3 5 5 5
15 8 8 10 11 11 10 8 6 4 4 5 6 7 6 7 9 10 11 12 12 12 13 13 12 11 11 11 11 10 10 8 8 7 5 4 4 4 4 3 3 4 5 5
12 7 10 13 13 12 10 7 5 5 7 5 5 5 5 7 8 10 12 13 13 13 12 12 12 11 11 11 10 10 9 8 8 7 7 7 5 5 4 3 3 4 4 5
10 11 12 14 13 11 6 5 6 7 7 6 6 7 2 5 6 8 10 12 12 12 12 12 12 11 10 10 9 9 8 8 8 7 7 7 6 5 3 3 3 4 3 4
8 7 10 10 8 8 7 7 6 7 8 9 6 7 3 3 2 3 6 9 11 11 11 10 10 9 9 9 9 9 8 8 8 8 7 7 6 5 4 3 3 3 3 3
10 10 9 9 10 11 11 10 8 9 9 8 4 7 3 1 1 2 3 6 8 10 10 10 10 10 10 10 9 9 9 8 7 7 7 6 6 5 5 4 3 3 3 2
15 15 14 12 13 12 15 15 11 9 9 7 6 7 3 1 0 1 3 4 7 9 10 10 10 10 10 10 9 9 9 7 7 7 6 5 5 4 3 3 3 3 3 3
13 14 12 11 9 10 14 14 12 10 9 8 7 5 4 3 4 4 5 6 7 8 9 10 10 10 10 9 9 9 8 7 6 6 5 4 4 3 3 2 2 2 2 2
8 11 12 11 9 7 9 11 9 10 9 10 8 8 5 5 5 6 6 6 7 8 9 10 10 9 9 9 8 8 7 7 6 6 5 4 3 2 2 1 0 1 1 2
11 11 12 13 15 15 11 13 10 10 10 9 8 5 2 3 4 5 6 7 7 9 10 10 9 9 9 9 9 8 8 7 6 5 4 3 3 3 2 1 1 1 1 2
12 10 12 14 9 8 14 14 14 12 9 10 9 3 6 3 3 5 6 7 8 8 9 10 10 10 9 9 9 8 8 7 6 6 6 5 4 3 3 2 1 1 2 2
11 10 12 12 12 10 13 13 15 14 10 11 11 6 6 4 3 5 7 8 8 9 9 9 10 9 9 8 8 7 7 7 6 6 6 6 5 4 3 3 2 2 2 2
9 12 14 15 13 15 15 15 15 15 12 12 12 7 6 5 5 6 7 8 9 9 9 9 9 9 8 8 7 7 7 7 7 7 6 6 5 4 3 3 3 3 3 3
10 13 15 12 9 12 15 16 17 17 16 13 11 10 7 5 4 5 7 8 9 9 9 9 9 9 8 8 8 8 8 8 7 7 6 6 5 5 4 4 4 4 4 4
9 11 13 13 12 12 14 16 17 17 15 14 12 10 4 4 5 6 7 8 8 9 9 9 9 9 9 9 8 9 8 8 8 7 7 6 5 5 5 5 5 5 5 5
9 10 12 13 13 13 17 17 16 15 14 14 13 9 6 6 7 7 7 8 8 9 9 9 9 9 8 8 9 9 9 9 8 7 7 7 6 6 5 6 5 5 5 6
10 11 10 11 12 16 11 9 13 14 13 12 10 7 8 6 5 5 6 8 8 9 9 9 9 9 9 9 9 9 9 9 8 8 7 6 6 6 6 6 6 5 5 6
10 11 10 11 15 14 8 8 11 13 12 10 10 9 8 7 6 5 6 7 7 8 8 9 9 9 9 9 9 9 9 8 8 8 7 7 7 6 6 6 6 6 6 6
10 11 11 12 14 14 9 8 7 10 12 8 9 9 9 10 9 6 6 7 7 8 8 8 9 9 9 8 9 9 8 8 7 7 7 7 7 7 7 7 7 6 6 6
13 12 15 14 13 9 3 5 9 12 7 5 8 9 10 9 5 5 7 7 7 8 8 9 9 9 8 8 9 9 8 7 7 7 7 7 7 7 7 7 7 6 6 7
12 12 13 13 14 9 4 6 8 2 0 4 6 7 7 6 5 6 7 7 8 8 9 9 9 8 7 8 8 8 7 7 7 7 8 8 7 7 7 8 7 7 7 7
7 5 6 6 5 3 2 2 0 1 2 2 4 5 6 7 7 7 8 8 8 9 9 8 9 9 7 7 8 8 7 8 8 8 8 8 8 7 7 8 7 6 6 5
4 2 3 3 3 2 1 1 1 1 2 2 3 5 6 7 8 8 7 8 8 8 8 8 9 9 8 7 7 7 8 8 8 9 8 8 8 8 7 6 5 5 5 5
3 4 5 5 4 3 2 0 0 0 1 3 3 4 6 7 7 8 7 8 7 7 7 8 8 8 8 7 7 8 8 9 9 8 8 8 7 7 7 6 4 3 3 2
5 5 6 4 3 2 1 1 1 1 2 3 3 4 5 6 7 7 7 7 7 8 8 8 8 8 8 8 7 7 8 8 9 8 7 6 6 6 6 7 6 10 8 8
Wind_Direction
195 212 209 200 213 218 204 213 188 154 161 216 222 215 179 184 197 197 193 193 196 200 196 192 195 198 199 202 201 204 208 203 207 215 220 224 235 250 256 258 261 265 267 263
200 216 208 197 197 213 212 211 196 165 166 234 240 232 199 195 205 207 201 200 201 198 194 192 197 200 203 202 204 206 210 208 208 212 224 228 241 247 246 264 272 271 269 267
216 194 179 192 196 207 215 222 212 199 194 216 251 227 199 197 209 210 212 209 206 201 197 195 199 203 203 204 205 206 207 208 210 211 212 213 218 240 242 248 259 269 270 270
217 181 189 202 205 212 212 213 220 209 221 213 239 255 186 191 200 206 209 208 206 203 202 200 199 202 202 200 199 201 201 204 204 205 214 219 231 240 246 251 262 261 261 267
198 190 196 207 206 214 211 181 208 218 235 243 224 264 175 171 209 210 207 207 206 203 201 201 202 199 198 195 192 192 193 197 200 205 209 220 234 242 248 248 257 264 263 268
192 188 208 209 198 197 163 165 183 219 235 237 232 254 247 169 225 208 193 199 204 201 199 199 197 190 188 187 186 185 184 191 195 200 210 219 228 236 251 255 264 264 266 273
193 192 193 196 182 182 196 202 207 216 224 229 198 242 255 48 290 251 196 188 193 193 192 189 186 179 176 176 178 180 180 184 188 196 207 214 222 230 241 256 261 275 287 288
196 196 192 196 205 197 209 219 225 230 230 212 191 238 236 141 230 197 184 175 176 179 179 178 176 172 169 170 173 178 179 181 183 186 193 208 214 228 240 249 274 284 293 302
204 201 182 194 206 215 205 222 237 241 248 244 213 226 223 189 173 158 153 154 163 168 169 168 166 164 163 165 169 172 171 171 173 177 179 191 204 223 246 255 257 282 300 315
215 205 187 184 191 214 231 212 217 234 232 235 226 227 221 186 181 162 149 143 149 156 159 159 158 157 156 156 156 159 158 159 162 169 175 168 179 190 207 235 330 356 357 357
217 209 190 191 204 200 197 207 216 228 237 240 234 214 162 185 178 172 151 141 145 149 149 147 145 144 146 148 150 151 149 150 153 154 152 151 149 149 150 140 95 51 22 13
209 217 205 200 196 224 212 211 208 216 220 237 253 201 116 147 170 166 152 143 141 140 140 142 140 143 147 148 148 149 148 148 153 150 145 142 135 131 124 108 77 59 48 34
193 212 204 197 197 202 212 212 217 225 223 229 238 209 128 151 161 155 150 146 144 145 142 142 142 145 147 149 148 148 148 147 148 144 140 137 133 126 116 102 83 67 58 45
203 216 221 215 206 195 203 206 215 220 223 226 235 233 173 180 171 159 155 153 150 148 148 148 145 145 144 147 147 147 144 142 142 139 137 133 127 120 116 106 96 84 75 66
210 217 224 236 224 208 210 210 211 221 231 236 230 237 226 201 185 168 163 160 155 154 156 153 149 146 147 147 145 144 140 137 137 138 135 131 127 123 118 110 103 95 88 82
213 220 216 223 222 219 221 217 216 222 229 236 239 236 221 184 177 174 171 169 168 164 162 158 153 150 152 153 150 145 141 138 138 136 132 130 129 126 121 118 113 106 94 85
199 210 213 217 211 216 223 219 216 218 223 229 231 228 193 192 190 183 178 178 176 171 167 163 160 156 156 155 151 148 145 142 140 138 137 138 138 132 129 126 118 109 102 95
206 213 215 217 203 223 224 215 221 222 224 227 234 221 205 202 188 186 188 182 176 174 169 165 161 156 155 150 149 146 145 145 144 142 140 140 141 134 128 123 115 107 100 97
209 209 217 217 215 220 211 205 212 217 225 225 224 213 201 181 178 189 188 183 179 173 166 162 159 153 149 149 147 145 147 148 148 147 146 145 143 138 136 129 120 114 109 103
194 211 220 220 226 223 206 188 204 217 224 214 213 205 193 192 209 194 165 168 164 158 155 152 149 144 144 147 148 149 151 152 150 148 147 143 142 142 138 131 127 121 116 111
188 200 217 219 224 224 174 180 193 214 215 193 202 200 199 209 226 155 156 154 150 147 147 146 144 142 142 147 151 151 151 151 147 144 141 141 140 137 131 126 125 125 122 114
201 201 210 218 223 214 150 184 203 226 173 193 198 195 195 184 163 158 153 150 151 150 149 146 142 139 141 148 152 151 150 144 141 141 140 138 135 133 130 128 127 127 125 121
218 231 222 224 221 97 143 176 87 306 245 213 197 189 176 168 163 158 152 149 151 151 148 147 144 141 143 150 153 152 148 146 144 143 140 136 132 128 133 136 136 137 139 136
195 241 220 216 194 175 167 200 280 288 243 206 182 178 171 163 157 150 147 147 149 147 146 148 146 144 144 149 150 146 144 148 146 143 140 139 137 134 132 137 139 143 145 146
213 214 210 215 200 188 187 176 350 59 132 146 151 166 166 159 156 151 149 149 151 149 146 147 146 145 145 144 142 143 146 148 146 146 145 146 145 139 134 125 100 126 112 109
227 234 233 225 194 222 163 75 95 130 122 128 144 144 146 154 154 153 151 151 153 151 147 143 141 142 143 142 140 144 150 151 150 151 154 154 148 143 142 132 105 52 59 64
Height
1513 1510 1508 1507 1506 1506 1508 1511 1514 1514 1514 1516 1516 1517 1519 1525 1529 1531 1534 1538 1541 1544 1547 1549 1551 1553 1554 1555 1556 1557 1559 1560 1561 1562 1563 1564 1564 1564 1565 1565 1564 1564 1564 1564
1511 1508 1505 1506 1509 1510 1510 1514 1515 1515 1515 1516 1516 1515 1515 1521 1525 1527 1531 1535 1538 1541 1544 1546 1548 1550 1552 1553 1554 1555 1557 1558 1559 1560 1560 1561 1562 1563 1563 1563 1562 1562 1562 1561
1506 1504 1507 1510 1511 1513 1512 1513 1513 1516 1516 1514 1516 1516 1514 1517 1522 1525 1528 1531 1534 1537 1540 1543 1545 1547 1549 1550 1551 1553 1554 1556 1557 1558 1558 1559 1560 1560 1560 1560 1560 1560 1559 1559
1504 1506 1509 1509 1509 1510 1514 1509 1511 1515 1519 1517 1518 1522 1513 1512 1516 1520 1524 1527 1530 1534 1537 1540 1542 1544 1546 1548 1549 1551 1552 1554 1555 1556 1557 1558 1558 1559 1559 1558 1558 1557 1556 1556
1504 1506 1508 1509 1507 1509 1508 1510 1511 1513 1516 1517 1516 1520 1511 1510 1514 1514 1518 1522 1526 1530 1533 1536 1539 1541 1544 1546 1547 1549 1550 1552 1553 1554 1554 1555 1556 1557 1557 1556 1556 1555 1555 1554
1501 1505 1505 1504 1506 1508 1511 1513 1514 1513 1513 1528 1519 1522 1518 1507 1510 1510 1514 1519 1523 1526 1530 1533 1536 1539 1541 1543 1545 1547 1548 1549 1550 1551 1552 1553 1554 1554 1554 1554 1554 1554 1553 1552
1507 1505 1505 1505 1507 1510 1510 1515 1527 1530 1529 1526 1515 1520 1515 1506 1507 1509 1512 1516 1520 1524 1527 1530 1533 1536 1538 1540 1542 1545 1546 1547 1548 1549 1550 1551 1552 1552 1553 1553 1553 1552 1552 1551
1507 1509 1502 1502 1502 1505 1506 1507 1523 1534 1530 1520 1519 1519 1507 1505 1508 1510 1512 1515 1518 1521 1525 1528 1531 1533 1536 1538 1541 1543 1544 1545 1547 1548 1548 1549 1550 1551 1551 1551 1551 1551 1550 1549
1497 1500 1497 1500 1500 1500 1504 1504 1498 1509 1514 1520 1514 1511 1504 1505 1507 1509 1511 1514 1517 1520 1523 1526 1529 1532 1534 1537 1539 1541 1543 1544 1545 1546 1547 1548 1548 1549 1550 1549 1549 1549 1548 1548
1490 1499 1496 1499 1501 1502 1498 1497 1505 1511 1526 1529 1519 1515 1508 1504 1504 1506 1509 1512 1516 1519 1522 1525 1528 1531 1533 1535 1538 1540 1542 1543 1544 1545 1546 1547 1547 1547 1548 1548 1548 1547 1547 1546
1489 1497 1499 1498 1500 1499 1503 1503 1503 1505 1507 1521 1524 1513 1496 1499 1502 1504 1508 1512 1515 1518 1521 1525 1527 1530 1532 1534 1537 1538 1540 1542 1543 1544 1545 1546 1546 1546 1547 1547 1547 1546 1546 1545
1490 1492 1496 1494 1492 1492 1493 1495 1501 1512 1516 1511 1511 1508 1495 1498 1501 1504 1508 1512 1516 1519 1521 1524 1526 1529 1531 1534 1536 1537 1539 1541 1542 1543 1544 1545 1545 1546 1546 1546 1546 1545 1545 1544
1491 1494 1504 1503 1501 1497 1495 1493 1493 1495 1501 1508 1512 1507 1497 1499 1501 1504 1508 1512 1516 1519 1521 1524 1526 1528 1531 1533 1535 1537 1538 1540 1541 1543 1543 1544 1545 1545 1545 1545 1545 1544 1544 1543
1490 1490 1493 1496 1491 1489 1495 1495 1494 1494 1503 1505 1503 1497 1496 1497 1500 1504 1508 1512 1515 1518 1520 1523 1525 1527 1529 1532 1534 1536 1537 1539 1540 1541 1542 1543 1544 1544 1544 1544 1544 1544 1543 1543
1488 1489 1487 1482 1480 1482 1487 1490 1492 1493 1492 1496 1495 1494 1492 1495 1499 1504 1507 1511 1514 1517 1519 1522 1524 1526 1528 1530 1532 1535 1536 1538 1539 1540 1542 1542 1543 1543 1544 1544 1543 1543 1543 1543
1488 1487 1487 1488 1483 1484 1486 1485 1487 1489 1489 1490 1490 1492 1490 1496 1500 1504 1507 1510 1512 1515 1518 1521 1523 1525 1527 1529 1531 1533 1535 1537 1538 1539 1541 1542 1542 1543 1543 1543 1544 1544 1543 1543
1486 1488 1490 1488 1484 1487 1491 1483 1484 1486 1485 1487 1490 1489 1492 1496 1499 1502 1506 1508 1511 1514 1516 1519 1521 1523 1526 1528 1530 1532 1534 1535 1537 1538 1540 1541 1542 1542 1543 1543 1544 1544 1544 1543
1486 1488 1486 1484 1491 1503 1481 1475 1477 1481 1482 1483 1485 1488 1492 1496 1499 1503 1505 1507 1510 1512 1515 1517 1519 1522 1525 1527 1529 1531 1533 1534 1536 1537 1538 1540 1541 1541 1542 1543 1544 1544 1544 1544
1484 1486 1484 1483 1488 1486 1480 1477 1478 1482 1483 1482 1484 1488 1491 1495 1499 1501 1503 1506 1508 1510 1513 1516 1518 1521 1523 1525 1527 1529 1532 1533 1535 1536 1537 1538 1540 1541 1542 1542 1543 1544 1544 1544
1483 1484 1482 1483 1487 1489 1477 1474 1478 1481 1485 1482 1484 1487 1490 1493 1493 1496 1501 1504 1506 1509 1511 1514 1517 1519 1521 1524 1526 1528 1530 1532 1533 1535 1536 1537 1539 1540 1541 1542 1543 1544 1544 1545
1480 1483 1480 1480 1482 1474 1472 1475 1479 1487 1484 1482 1484 1486 1489 1490 1490 1495 1499 1502 1505 1507 1509 1512 1515 1517 1520 1522 1524 1527 1528 1530 1532 1533 1535 1536 1538 1539 1540 1541 1542 1543 1545 1545
1472 1474 1478 1476 1480 1479 1474 1475 1477 1479 1481 1482 1483 1486 1488 1490 1492 1495 1498 1500 1503 1505 1508 1511 1513 1516 1518 1520 1523 1525 1527 1529 1530 1532 1533 1535 1537 1538 1540 1541 1542 1544 1545 1545
1470 1470 1467 1471 1474 1476 1477 1478 1480 1481 1482 1483 1484 1486 1488 1490 1492 1494 1497 1499 1502 1504 1507 1509 1512 1514 1517 1519 1521 1523 1525 1527 1529 1531 1532 1534 1536 1537 1539 1540 1542 1543 1544 1546
1474 1477 1474 1475 1474 1477 1479 1480 1481 1482 1482 1483 1484 1486 1487 1489 1491 1494 1496 1498 1501 1504 1506 1508 1510 1513 1515 1517 1520 1522 1524 1526 1528 1530 1532 1533 1535 1536 1538 1540 1542 1543 1544 1545
1474 1475 1473 1475 1477 1478 1479 1481 1481 1482 1482 1483 1484 1486 1487 1489 1491 1493 1495 1497 1499 1502 1504 1507 1509 1511 1514 1516 1519 1521 1522 1524 1527 1529 1531 1533 1535 1536 1537 1539 1541 1543 1544 1545
1475 1475 1474 1472 1477 1478 1480 1481 1481 1481 1482 1483 1484 1486 1487 1489 1490 1492 1494 1496 1498 1500 1503 1505 1508 1511 1513 1515 1518 1520 1522 1523 1525 1528 1531 1532 1534 1536 1537 1538 1539 1541 1543 1544